Starlink 3344

operational
NORAD ID: 51110 Int'l Des: 2022-005 Owner: SPXS Country: US Constellation: starlink
LEOCIRCULAR

关于 Starlink 3344

正在加载描述...

实时位置

正在加载3D地球...

即将过境

高度历史

Altitude vs Time

uPlot chart will show altitude changes over time

两行轨道根数

1 51110U 22005G 26035.84397203 .00000731 00000-0 64027-4 0 9993
2 51110 53.2152 76.5506 0001595 87.9168 272.2006 15.08844406223923
Epoch: Feb 4, 2026 • Age: 19 hours

当前状态

高度 554.4 km
速度 7.58 km/s
星下点 -41.35°S, 30.05°E
发射日期 Jan 19, 2022
运行时间 4 years
类型 internet

技术详情

分类 Payload
质量 297.00 kg
干质量 275.00 kg
总质量 297.00 kg
长度 0.20 m
直径 2.80 m
跨度 9.00 m
形状 Box + pan
制造商 SPXS
平台类型 Starlink
阶段状态 In Orbit
所有者/国家 SPXS/US

大型星座

Loading constellations...